Location: Newark
(13.8625°N, 100.5144°E)
Time: 15:20:56
(UTC+00:00)

LightSail 2 - Pass Details

Date: 12 May 2021
Orbit: 685 x 700 km, 24.0° (Epoch: 11 June)

Event Time Altitude Azimuth Distance (km) Brightness Sun altitude
Exits shadow 20:35:21 26° 360° (N) 1,346 6.8 -30.9°
Maximum altitude 20:35:35 26° 4° (N) 1,342 6.8 -30.9°
Drops below altitude 10° 20:39:46 10° 61° (ENE) 2,126 8.5 -30.0°
Sets 20:42:31 0° 74° (ENE) 3,040 9.5 -29.4°
